This demonstration page uses our WeatherBlox Daily Observations layout. Learn more.

Left ArrowRight Arrow

39.92423, -83.80882

Hourly Observations for February 2, 2016

Temp ( °F °C ) Dew Point ( °F °C ) Humidity (%) Winds ( mph kmh ) Pressure ( in mb ) Visibility ( mi km ) Precip ( " mm )
12:56 am 00:56 Clear 27 -2.7 26 -3.3 96 96 ENE 7 11 30.13 1020 10 16 N/A
1:56 am 01:56 Clear 28 -2.2 28 -2.2 100 100 ENE 5 7 30.15 1021 8 13 N/A
2:56 am 02:56 Clear with Mist and Fog 27 -2.7 27 -2.7 100 100 ENE 5 7 30.16 1021 6 10 N/A
3:56 am 03:56 Clear 29 -1.6 29 -1.6 100 100 ENE 5 7 30.16 1021 7 11 N/A
4:56 am 04:56 Clear 29 -1.6 29 -1.6 100 100 ENE 7 11 30.16 1022 7 11 N/A
5:56 am 05:56 Clear 32 undefined 32 undefined 100 100 E 9 15 30.18 1022 7 11 N/A
6:56 am 06:56 Clear 31 -0.5 31 -0.5 100 100 E 12 19 30.16 1021 7 11 N/A
7:56 am 07:56 Sunny 32 undefined 32 undefined 100 100 E 14 22 30.16 1021 9 14 N/A
8:56 am 08:56 Sunny 34 1.1 33 0.5 96 96 E 13 20 30.15 1021 9 14 N/A
9:56 am 09:56 Sunny 38 3.3 35 1.6 89 89 E 15 24 30.16 1021 10 16 N/A
10:56 am 10:56 Mostly Cloudy 41 5 36 2.2 82 82 ESE 15 24 30.13 1020 10 16 N/A
11:56 am 11:56 Mostly Sunny 43 6.1 38 3.3 82 82 E 20 31 30.07 1018 10 16 N/A
12:56 pm 12:56 Mostly Sunny 47 8.3 39 3.8 74 74 ESE 22 35 30.00 1016 10 16 N/A
1:56 pm 13:56 Sunny 52 11.1 41 5 66 66 ESE 23 37 29.91 1013 10 16 N/A
2:56 pm 14:56 Sunny 55 12.7 43 6.1 64 64 ESE 18 30 29.86 1011 10 16 N/A
3:56 pm 15:56 Mostly Cloudy 57 13.8 46 7.7 67 67 SE 16 26 29.83 1010 10 16 N/A
4:56 pm 16:56 Mostly Cloudy with Light Rain 54 12.2 47 8.3 77 77 SE 14 22 29.83 1010 9 14 N/A
5:07 pm 17:07 Mostly Cloudy 54 12 48 9 82 82 SSE 12 19 29.83 1010 3 5 0.01 0.25
5:10 pm 17:10 Mostly Cloudy with Nearby Thunderstorms 54 12 48 9 82 82 SE 15 24 29.83 1010 2 3 0.06 1.52
5:12 pm 17:12 Cloudy 54 12 48 9 82 82 ESE 15 24 29.80 1009 1 2 0.15 3.81
5:16 pm 17:16 Mostly Cloudy with Light Rain 52 11 48 9 88 88 ESE 15 24 29.80 1009 1 1 0.16 4.06
5:20 pm 17:20 Mostly Cloudy with Mist and Fog 52 11 48 9 88 88 ESE 15 24 29.80 1009 1 2 0.16 4.06
5:22 pm 17:22 Mostly Cloudy with Mist and Fog 52 11 48 9 88 88 ESE 14 22 29.80 1009 3 4 0.16 4.06
5:29 pm 17:29 Mostly Cloudy with Nearby Thunderstorms 52 11 48 9 88 88 ESE 14 22 29.77 1008 10 16 0.16 4.06
5:39 pm 17:39 Partly Cloudy with Light Rain 52 11 48 9 88 88 ESE 16 26 29.77 1008 10 16 0.16 4.06
5:56 pm 17:56 Mostly Clear 51 10.5 48 8.8 89 89 E 14 22 29.79 1009 10 16 0.16 4.06
6:45 pm 18:45 Mostly Cloudy with Thunderstorms 54 12 48 9 82 82 SE 18 30 29.77 1008 10 16 N/A
6:56 pm 18:56 Partly Cloudy with Light Rain 53 11.6 49 9.4 86 86 SE 16 26 29.77 1008 10 16 N/A
7:18 pm 19:18 Mostly Cloudy 54 12 48 9 82 82 ESE 16 26 29.74 1007 10 16 0.01 0.25
7:43 pm 19:43 Mostly Cloudy with Light Rain 54 12 48 9 82 82 ESE 13 20 29.71 1006 9 14 0.01 0.25
7:56 pm 19:56 Mostly Cloudy with Light Rain 53 11.6 49 9.4 86 86 ESE 12 19 29.72 1006 10 16 0.01 0.25
8:05 pm 20:05 Mostly Cloudy 54 12 50 10 88 88 SE 14 22 29.74 1007 7 11 0.01 0.25
8:24 pm 20:24 Mostly Cloudy with Light Rain 54 12 52 11 94 94 SE 9 15 29.74 1007 3 4 0.08 2.03
8:32 pm 20:32 Cloudy with Light Rain 54 12 52 11 94 94 ESE 12 19 29.71 1006 3 5 0.10 2.54
8:56 pm 20:56 Cloudy with Light Rain 53 11.6 51 10.5 93 93 SE 13 20 29.74 1007 3 4 0.18 4.57
9:12 pm 21:12 Mostly Cloudy with Rain 54 12 52 11 94 94 SE 13 20 29.74 1007 2 3 0.10 2.54
9:16 pm 21:16 Mostly Cloudy with Rain 54 12 52 11 94 94 SE 14 22 29.74 1007 2 3 0.11 2.79
9:19 pm 21:19 Mostly Cloudy with Light Rain 54 12 54 12 100 100 ESE 15 24 29.71 1006 3 5 0.11 2.79
9:40 pm 21:40 Cloudy with Rain 54 12 54 12 100 100 SE 14 22 29.74 1007 3 4 0.19 4.83
9:44 pm 21:44 Cloudy with Light Rain 54 12 54 12 100 100 SE 13 20 29.74 1007 3 5 0.21 5.33
9:56 pm 21:56 Cloudy with Light Rain 54 12.2 53 11.6 96 96 SE 13 20 29.72 1007 4 6 0.25 6.35
10:38 pm 22:38 Mostly Cloudy with Light Rain 54 12 54 12 100 100 SE 13 20 29.68 1005 6 10 0.09 2.29
10:56 pm 22:56 Cloudy with Light Rain 55 12.7 54 12.2 97 97 SE 14 22 29.68 1005 5 8 0.11 2.79
11:44 pm 23:44 Mostly Cloudy with Rain 55 13 55 13 100 100 SE 15 24 29.65 1004 2 3 0.13 3.30
11:56 pm 23:56 Cloudy with Light Rain 56 13.3 56 13.3 100 100 SE 18 30 29.63 1003 4 6 0.15 3.81

Powered by AerisWeather